Powrót do katalogu

STARLINK-34086

AktywnyŁącznośćVLEO
NORAD 65734·PAYLOAD·🇺🇸 United States

Wystrzelony Sep 25, 2025 z Cape Canaveral Space Force Station

Loading…

Następne Przeloty (najbliższe 24 godziny)

TLE

ŚwieżeSource: CelesTrak SupGP

Epoka: Sep 14, 2026, 20:45 UTC

1 65734C 25216A   26257.86506944 -.00006787  00000+0 -20045-3 0  2575
2 65734  53.1569 172.2247 0001187  95.5006 313.9200 15.34404361    13

Śledź STARLINK-34086 w czasie rzeczywistym z AllMySat

Download on the App Store